This is the latest recevied weather packets stored in our database for station/object BMCB-10. If no packets are shown the sender has not sent any weather packets the latest 10 day(s).
| Time | Temp. | Humidity | Pressure | Rain* | Wind** | Luminosity | Snow |
|---|---|---|---|---|---|---|---|
| 1777631448 | 21.67° C | 26% | 1023.8 hPa | 0 mm | - | 812 W/m² | - |
| 1777630222 | 21.11° C | 25% | 1024.1 hPa | 0 mm | - | 792 W/m² | - |
| 1777629629 | 20.56° C | 29% | 1024.2 hPa | 0 mm | - | 780 W/m² | - |
| 1777629039 | 20.56° C | 27% | 1024.3 hPa | 0 mm | - | 768 W/m² | - |
| 1777628432 | 20° C | 29% | 1024.4 hPa | 0 mm | - | 752 W/m² | - |
| 1777621250 | 11.11° C | 62% | 1025.1 hPa | 0 mm | - | 394 W/m² | - |
| 1777618822 | 5.56° C | 88% | 1025 hPa | 0 mm | - | 36 W/m² | - |
| 1777615223 | 1.67° C | 97% | 1024.9 hPa | 0 mm | - | 28 W/m² | - |
| 1777613421 | 1.11° C | 96% | 1024.8 hPa | 0 mm | - | 22 W/m² | - |
| 1777611623 | 0.56° C | 96% | 1024.8 hPa | 0 mm | - | 14 W/m² | - |
| 1777608022 | 0.56° C | 95% | 1024.6 hPa | 0 mm | - | 0 W/m² | - |
| 1777605048 | 1.11° C | 94% | 1024.6 hPa | 0 mm | - | 0 W/m² | - |
| 1777602648 | 1.11° C | 94% | 1024.6 hPa | 0 mm | - | 0 W/m² | - |
| 1777599639 | 1.67° C | 93% | 1024.8 hPa | 0 mm | - | 0 W/m² | - |
| 1777593622 | 1.67° C | 92% | 1024.9 hPa | 0 mm | - | 0 W/m² | - |
| 1777591857 | 2.22° C | 90% | 1025.2 hPa | 0 mm | - | 0 W/m² | - |
| 1777590054 | 2.22° C | 89% | 1025.3 hPa | 0 mm | - | 0 W/m² | - |
| 1777584060 | 3.89° C | 82% | 1025.4 hPa | 0 mm | - | 0 W/m² | - |
| 1777583462 | 4.44° C | 81% | 1025.3 hPa | 0 mm | - | 0 W/m² | - |
| 1777582863 | 4.44° C | 80% | 1025.3 hPa | 0 mm | - | 0 W/m² | - |
| 1777582260 | 5° C | 80% | 1025.3 hPa | 0 mm | - | 0 W/m² | - |
| 1777577461 | 7.78° C | 69% | 1025.1 hPa | 0 mm | - | 0 W/m² | - |
| 1777576859 | 8.33° C | 68% | 1025 hPa | 0 mm | - | 0 W/m² | - |
| 1777576261 | 8.89° C | 65% | 1024.8 hPa | 0 mm | - | 0 W/m² | - |
| 1777573860 | 14.44° C | 44% | 1024.4 hPa | 0 mm | - | 10 W/m² | - |
* Rain latest hour (hover to see other rain measurements)
** Current wind speed in m/s (hover to see current wind gust speed)